Overview Statistics Trail Chart Weather Telemetry Raw packets
 

This is the latest recevied weather packets stored in our database for station/object HP1CDW-10. If no packets are shown the sender has not sent any weather packets the latest 10 day(s).

<< 37 38 39 40 41 42 43 >>
Time Temp. Humidity Pressure Rain* Wind** Luminosity Snow
1787955150 36.67° C 46% 1000.8 hPa - - - -
1787954545 37.22° C 45% 1000.7 hPa - - - -
1787953940 36.67° C 45% 1000.4 hPa - - - -
1787953336 36.67° C 45% 1000.4 hPa - - - -
1787952731 36.67° C 44% 1000.5 hPa - - - -
1787952126 36.67° C 46% 1000.2 hPa - - - -
1787951521 37.22° C 45% 1000.2 hPa - - - -
1787950916 37.22° C 46% 1000.3 hPa - - - -
1787950312 37.22° C 46% 1000.3 hPa - - - -
1787949707 36.67° C 46% 1000.4 hPa - - - -
1787949102 35.56° C 49% 1000.6 hPa - - - -
1787948497 36.11° C 48% 1000.4 hPa - - - -
1787947892 36.11° C 48% 1000.3 hPa - - - -
1787947288 36.67° C 46% 1000.4 hPa - - - -
1787946683 36.67° C 46% 1000.5 hPa - - - -
1787946086 36.67° C 46% 1000.5 hPa - - - -
1787944869 36.67° C 46% 1000.4 hPa - - - -
1787943659 36.67° C 46% 1001.1 hPa - - - -
1787943054 36.67° C 46% 1001.3 hPa - - - -
1787941845 36.11° C 46% 1001.6 hPa - - - -
1787941240 36.67° C 46% 1001.8 hPa - - - -
1787940635 36.11° C 46% 1001.9 hPa - - - -
1787940030 36.11° C 47% 1002 hPa - - - -
1787939426 35° C 50% 1001.8 hPa - - - -
1787938821 34.44° C 51% 1001.8 hPa - - - -

* Rain since midnight (hover to see other rain measurements)
** Current wind speed in m/s (hover to see current wind gust speed)